TimeEDT,TemperatureF,Dew PointF,Humidity,Sea Level PressureIn,VisibilityMPH,Wind Direction,Wind SpeedMPH,Gust SpeedMPH,PrecipitationIn,Events,Conditions,WindDirDegrees,DateUTC
12:56 AM,72.0,66.9,84,29.95,10.0,South,3.5,-,N/A,,Partly Cloudy,180,2013-08-07 04:56:00
1:16 AM,73.4,66.2,78,29.97,10.0,South,3.5,-,N/A,,Mostly Cloudy,170,2013-08-07 05:16:00
1:44 AM,73.4,68.0,83,29.97,10.0,South,5.8,-,N/A,,Overcast,170,2013-08-07 05:44:00
1:56 AM,73.0,68.0,84,29.94,10.0,South,5.8,-,N/A,,Mostly Cloudy,170,2013-08-07 05:56:00
2:56 AM,72.0,68.0,87,29.94,10.0,South,6.9,-,N/A,,Scattered Clouds,170,2013-08-07 06:56:00
3:56 AM,73.0,68.0,84,29.94,10.0,South,6.9,-,N/A,,Mostly Cloudy,180,2013-08-07 07:56:00
4:56 AM,73.0,69.1,87,29.92,9.0,SSW,8.1,-,N/A,,Mostly Cloudy,200,2013-08-07 08:56:00
5:32 AM,71.6,69.8,94,29.94,8.0,South,6.9,-,N/A,,Mostly Cloudy,190,2013-08-07 09:32:00
5:56 AM,72.0,69.1,91,29.91,7.0,South,5.8,-,N/A,,Mostly Cloudy,190,2013-08-07 09:56:00
6:33 AM,71.6,69.8,94,29.95,7.0,SSW,6.9,-,N/A,,Overcast,200,2013-08-07 10:33:00
6:56 AM,72.0,69.1,91,29.92,6.0,SSW,8.1,-,N/A,,Overcast,200,2013-08-07 10:56:00
6:58 AM,71.6,69.8,94,29.94,6.0,SSW,6.9,-,N/A,,Overcast,200,2013-08-07 10:58:00
7:43 AM,71.6,69.8,94,29.95,4.0,SSW,5.8,-,N/A,,Overcast,200,2013-08-07 11:43:00
7:56 AM,72.0,70.0,93,29.93,4.0,SSW,8.1,-,N/A,,Overcast,200,2013-08-07 11:56:00
8:06 AM,73.4,69.8,88,29.95,2.0,South,6.9,-,N/A,,Overcast,190,2013-08-07 12:06:00
8:42 AM,73.4,71.6,94,29.95,0.5,South,9.2,-,N/A,,Overcast,190,2013-08-07 12:42:00
8:56 AM,73.0,71.1,93,29.94,0.5,SSW,9.2,-,N/A,,Overcast,200,2013-08-07 12:56:00
9:32 AM,75.2,71.6,89,29.98,2.5,SSW,9.2,-,N/A,,Overcast,210,2013-08-07 13:32:00
9:56 AM,75.9,72.0,87,29.95,4.0,SW,6.9,-,N/A,,Overcast,220,2013-08-07 13:56:00
10:10 AM,77.0,71.6,83,29.98,5.0,SW,8.1,-,N/A,,Haze,220,2013-08-07 14:10:00
10:56 AM,75.9,71.1,85,29.96,4.0,SW,8.1,-,N/A,,Haze,220,2013-08-07 14:56:00
11:12 AM,75.2,71.6,89,29.97,4.0,SSW,9.2,-,N/A,,Haze,200,2013-08-07 15:12:00
11:56 AM,78.1,71.1,79,29.96,5.0,SW,6.9,-,N/A,,Haze,220,2013-08-07 15:56:00
12:05 PM,78.8,71.6,78,29.97,5.0,SSW,9.2,-,N/A,,Haze,200,2013-08-07 16:05:00
12:40 PM,78.8,69.8,74,29.97,5.0,SW,8.1,-,N/A,,Haze,230,2013-08-07 16:40:00
12:56 PM,80.1,71.1,74,29.94,5.0,SSW,8.1,-,N/A,,Haze,210,2013-08-07 16:56:00
1:56 PM,80.1,72.0,76,29.94,6.0,SSW,8.1,-,N/A,,Haze,210,2013-08-07 17:56:00
2:56 PM,81.0,70.0,69,29.92,7.0,West,5.8,-,N/A,,Overcast,260,2013-08-07 18:56:00
3:56 PM,82.0,71.1,69,29.90,8.0,SW,8.1,-,N/A,,Overcast,220,2013-08-07 19:56:00
4:56 PM,84.0,71.1,65,29.89,10.0,SW,8.1,-,N/A,,Mostly Cloudy,220,2013-08-07 20:56:00
5:56 PM,82.9,70.0,65,29.89,10.0,WSW,6.9,-,N/A,,Mostly Cloudy,250,2013-08-07 21:56:00
6:56 PM,82.0,71.1,69,29.88,9.0,SW,9.2,-,N/A,,Overcast,220,2013-08-07 22:56:00
7:56 PM,81.0,71.1,72,29.90,9.0,SW,6.9,-,N/A,,Overcast,230,2013-08-07 23:56:00
8:56 PM,79.0,71.1,77,29.89,9.0,SSW,4.6,-,N/A,,Mostly Cloudy,210,2013-08-08 00:56:00
9:56 PM,78.1,71.1,79,29.91,9.0,Calm,Calm,-,N/A,,Mostly Cloudy,0,2013-08-08 01:56:00
10:56 PM,78.1,71.1,79,29.94,9.0,SSW,3.5,-,N/A,,Mostly Cloudy,200,2013-08-08 02:56:00
11:56 PM,77.0,71.1,82,29.92,8.0,South,3.5,-,N/A,,Overcast,190,2013-08-08 03:56:00